GW4041 Weather Reports


time (UTC)temp
C
wind
direction
speed
KPH
gust
KPH
rain 1hr
cm
rain 24hr
cm
rain mn
cm
humidity
%
barometer
mb
20260505180655 27 76 1.6 8.0 0.00 0.00 0.00 41 1009.5
20260505180152 27 333 12.9 16.1 0.00 0.00 0.00 42 1009.4
20260505175648 27 175 4.8 12.9 0.00 0.00 0.00 41 1009.5
20260505175145 27 53 0.0 8.0 0.00 0.00 0.00 43 1009.4
20260505174642 27 203 1.6 4.8 0.00 0.00 0.00 42 1009.4
20260505174137 27 138 4.8 16.1 0.00 0.00 0.00 45 1009.7
20260505173634 27 242 4.8 9.7 0.00 0.00 0.00 45 1009.3
20260505173131 27 257 3.2 4.8 0.00 0.00 0.00 45 1009.5
20260505172629 27 250 1.6 4.8 0.00 0.00 0.00 44 1009.7
20260505172125 28 306 4.8 14.5 0.00 0.00 0.00 44 1009.8
20260505171620 27 31 0.0 3.2 0.00 0.00 0.00 46 1009.5
20260505171118 26 95 4.8 8.0 0.00 0.00 0.00 46 1009.7
20260505170615 27 243 1.6 8.0 0.00 0.00 0.00 46 1009.7
20260505170111 27 323 0.0 1.6 0.00 0.00 0.00 47 1009.7
20260505165606 26 159 4.8 8.0 0.00 0.00 0.00 46 1009.8
20260505165102 26 268 3.2 8.0 0.00 0.00 0.00 46 1009.8
20260505164558 27 186 4.8 14.5 0.00 0.00 0.00 46 1009.8
20260505164056 27 230 1.6 8.0 0.00 0.00 0.00 44 1010.0
20260505163554 27 159 1.6 3.2 0.00 0.00 0.00 46 1009.9
20260505163051 27 98 4.8 11.3 0.00 0.00 0.00 45 1010.0
20260505162544 27 195 1.6 3.2 0.00 0.00 0.00 44 1009.9
20260505162041 27 140 3.2 4.8 0.00 0.00 0.00 44 1010.2
20260505161538 28 86 6.4 12.9 0.00 0.00 0.00 42 1010.0
20260505161035 27 92 3.2 4.8 0.00 0.00 0.00 45 1010.0
20260505160533 27 82 4.8 4.8 0.00 0.00 0.00 43 1010.4
20260505153009 26 2 4.8 4.8 0.00 0.00 0.00 46 1010.6
20260505152506 26 351 4.8 8.0 0.00 0.00 0.00 46 1010.4
20260505152002 26 126 3.2 4.8 0.00 0.00 0.00 46 1010.4
20260505151457 26 139 3.2 8.0 0.00 0.00 0.00 49 1010.7
20260505150955 25 278 0.0 8.0 0.00 0.00 0.00 49 1010.5
20260505150451 25 341 1.6 8.0 0.00 0.00 0.00 49 1010.5
20260505140422 23 229 3.2 4.8 0.00 0.00 0.00 53 1011.2
20260505124835 20 357 1.6 8.0 0.00 0.00 0.00 65 1011.2
20260505124332 20 155 4.8 4.8 0.00 0.00 0.00 64 1011.0
20260505123828 19 77 1.6 3.2 0.00 0.00 0.00 66 1011.1
20260505123324 19 4 1.6 3.2 0.00 0.00 0.00 67 1011.1
20260505122821 18 169 1.6 3.2 0.00 0.00 0.00 70 1011.1
20260505122318 18 200 1.6 1.6 0.00 0.00 0.00 69 1011.0
20260505121815 17 179 1.6 3.2 0.00 0.00 0.00 71 1011.2
20260505121312 17 211 3.2 4.8 0.00 0.00 0.00 72 1011.4
20260505120808 17 105 1.6 1.6 0.00 0.00 0.00 72 1011.4
20260505120304 17 50 0.0 1.6 0.00 0.00 0.00 74 1011.3
20260505115802 17 72 1.6 3.2 0.00 0.00 0.00 75 1011.2
20260505115300 16 65 0.0 1.6 0.00 0.00 0.00 75 1011.3
20260505114757 16 70 0.0 1.6 0.00 0.00 0.00 79 1011.1
20260505114254 15 7 0.0 1.6 0.00 0.00 0.00 82 1011.2
20260505113750 15 17 0.0 0.0 0.00 0.00 0.00 81 1011.3
20260505113247 15 348 0.0 0.0 0.00 0.00 0.00 83 1011.1
20260505112743 15 2 0.0 0.0 0.00 0.00 0.00 85 1010.8
20260505112241 14 24 0.0 0.0 0.00 0.00 0.00 85 1011.1
20260505111740 13 344 0.0 0.0 0.00 0.00 0.00 88 1011.0
20260505111236 13 344 0.0 0.0 0.00 0.00 0.00 88 1011.1
20260505110732 13 345 0.0 0.0 0.00 0.00 0.00 88 1010.9
20260505110230 13 342 0.0 0.0 0.00 0.00 0.00 88 1011.2
20260505102205 12 322 0.0 1.6 0.00 0.00 0.00 89 1011.0
20260505101704 12 315 0.0 1.6 0.00 0.00 0.00 88 1011.0
20260505101200 12 316 0.0 1.6 0.00 0.00 0.00 88 1010.9
20260505100656 12 316 1.6 1.6 0.00 0.00 0.00 88 1011.1
20260505100153 12 315 3.2 4.8 0.00 0.00 0.00 87 1011.2
20260505095649 12 234 1.6 1.6 0.00 0.00 0.00 88 1010.7
20260505095147 12 315 3.2 3.2 0.00 0.00 0.00 87 1011.1
20260505094642 12 296 1.6 3.2 0.00 0.00 0.00 87 1010.9
20260505094139 12 316 1.6 1.6 0.00 0.00 0.00 89 1010.9
20260505093635 12 316 0.0 0.0 0.00 0.00 0.00 88 1010.8
20260505093133 12 337 0.0 0.0 0.00 0.00 0.00 89 1010.7
20260505092630 12 320 0.0 0.0 0.00 0.00 0.00 89 1010.4
20260505092129 12 340 0.0 0.0 0.00 0.00 0.00 90 1010.3
20260505091625 12 350 0.0 0.0 0.00 0.00 0.00 90 1010.2
20260505091123 12 335 0.0 0.0 0.00 0.00 0.00 89 1010.2
20260505090620 12 83 0.0 0.0 0.00 0.00 0.00 88 1010.3
20260505090119 12 347 0.0 1.6 0.00 0.00 0.00 88 1010.0
20260505085616 13 343 0.0 0.0 0.00 0.00 0.00 86 1010.2
20260505085114 13 343 0.0 1.6 0.00 0.00 0.00 85 1010.1
20260505084611 13 329 0.0 0.0 0.00 0.00 0.00 86 1010.1
20260505084110 13 339 0.0 0.0 0.00 0.00 0.00 86 1010.3
20260505083607 13 324 0.0 0.0 0.00 0.00 0.00 87 1010.4
20260505083103 13 341 0.0 0.0 0.00 0.00 0.00 87 1010.3
20260505082559 13 7 0.0 1.6 0.00 0.00 0.00 87 1010.2
20260505082056 13 4 0.0 1.6 0.00 0.00 0.00 87 1010.1
20260505081552 13 339 0.0 1.6 0.00 0.00 0.00 87 1010.2
20260505081050 13 337 0.0 1.6 0.00 0.00 0.00 85 1010.3
20260505080545 13 271 1.6 1.6 0.00 0.00 0.00 85 1010.1
20260505080043 13 322 1.6 3.2 0.00 0.00 0.00 83 1010.2
20260505075538 12 17 1.6 3.2 0.00 0.00 0.00 83 1010.1
20260505075035 12 352 0.0 1.6 0.00 0.00 0.00 83 1010.0
20260505074532 12 20 0.0 0.0 0.00 0.00 0.00 84 1010.4
20260505074030 12 32 0.0 0.0 0.00 0.00 0.00 84 1010.3
20260505073527 12 43 0.0 1.6 0.00 0.00 0.00 83 1010.4
20260505073025 12 28 0.0 0.0 0.00 0.00 0.00 83 1010.0
20260505072520 12 349 0.0 0.0 0.00 0.00 0.00 82 1010.1
20260505072017 12 347 0.0 0.0 0.00 0.00 0.00 82 1010.1
20260505071513 13 346 0.0 0.0 0.00 0.00 0.00 82 1010.1
20260505071011 13 331 0.0 0.0 0.00 0.00 0.00 81 1010.0
20260505070508 13 350 0.0 0.0 0.00 0.00 0.00 81 1010.2
20260505070004 13 341 0.0 0.0 0.00 0.00 0.00 81 1010.1
20260505065500 13 328 1.6 3.2 0.00 0.00 0.00 79 1009.8
20260505064956 13 342 1.6 1.6 0.00 0.00 0.00 81 1010.0
20260505064453 13 331 0.0 0.0 0.00 0.00 0.00 81 1010.0
20260505063952 12 338 0.0 1.6 0.00 0.00 0.00 82 1010.0
20260505063448 12 341 0.0 1.6 0.00 0.00 0.00 82 1010.0
20260505062945 13 343 0.0 1.6 0.00 0.00 0.00 82 1009.9
20260505062442 13 36 1.6 3.2 0.00 0.00 0.00 81 1010.3
20260505061938 13 75 1.6 1.6 0.00 0.00 0.00 82 1010.2
20260505061437 12 56 0.0 3.2 0.00 0.00 0.00 82 1010.3
20260505060934 12 50 0.0 1.6 0.00 0.00 0.00 83 1010.0
20260505060431 12 352 0.0 1.6 0.00 0.00 0.00 83 1010.0
20260505055927 12 12 0.0 1.6 0.00 0.00 0.00 82 1010.1
20260505055423 12 20 0.0 0.0 0.00 0.00 0.00 82 1010.2
20260505054920 12 80 0.0 1.6 0.00 0.00 0.00 82 1010.1
20260505054417 13 249 0.0 1.6 0.00 0.00 0.00 82 1010.1
20260505053915 12 207 0.0 1.6 0.00 0.00 0.00 82 1010.2
20260505053412 13 24 0.0 1.6 0.00 0.00 0.00 81 1010.5
20260505052909 13 82 1.6 3.2 0.00 0.00 0.00 81 1010.2
20260505052406 13 21 0.0 3.2 0.00 0.00 0.00 80 1010.2
20260505051903 13 348 0.0 1.6 0.00 0.00 0.00 80 1010.4
20260505051400 13 90 0.0 1.6 0.00 0.00 0.00 80 1010.5
20260505050858 13 5 0.0 1.6 0.00 0.00 0.00 80 1010.4
20260505050357 13 55 0.0 1.6 0.00 0.00 0.00 80 1010.2
20260505041324 13 164 3.2 3.2 0.00 0.00 0.00 75 1010.3
20260505040821 14 100 1.6 4.8 0.00 0.00 0.00 74 1010.4
20260505040319 14 152 3.2 3.2 0.00 0.00 0.00 72 1010.3
20260505035815 14 136 1.6 1.6 0.00 0.00 0.00 72 1010.3
20260505035311 14 83 8.0 9.7 0.00 0.00 0.00 72 1010.5
20260505034808 14 102 1.6 1.6 0.00 0.00 0.00 71 1010.3
20260505034300 14 108 3.2 3.2 0.00 0.00 0.00 70 1010.3
20260505033756 14 107 3.2 3.2 0.00 0.00 0.00 70 1010.5
20260505033254 15 103 0.0 3.2 0.00 0.00 0.00 69 1010.4
20260505032752 14 119 1.6 3.2 0.00 0.00 0.00 68 1010.4
20260505032247 15 93 3.2 3.2 0.00 0.00 0.00 67 1010.5
20260505031745 15 119 1.6 3.2 0.00 0.00 0.00 66 1010.5
20260505031241 15 138 1.6 3.2 0.00 0.00 0.00 65 1010.3
20260505030738 15 175 1.6 3.2 0.00 0.00 0.00 64 1010.7
20260505030234 15 59 1.6 1.6 0.00 0.00 0.00 63 1010.5
20260505025730 15 58 1.6 1.6 0.00 0.00 0.00 63 1010.5
20260505025229 15 150 3.2 3.2 0.00 0.00 0.00 63 1010.5
20260505024727 15 245 0.0 0.0 0.00 0.00 0.00 64 1010.6
20260505024224 15 323 0.0 0.0 0.00 0.00 0.00 62 1010.5
20260505023721 15 11 0.0 0.0 0.00 0.00 0.00 61 1010.5
20260505023218 15 272 0.0 1.6 0.00 0.00 0.00 61 1010.5
20260505022715 15 71 0.0 1.6 0.00 0.00 0.00 59 1010.9
20260505022212 15 13 0.0 1.6 0.00 0.00 0.00 59 1010.6
20260505021708 15 35 0.0 1.6 0.00 0.00 0.00 59 1010.7
20260505021206 15 92 0.0 0.0 0.00 0.00 0.00 59 1010.8
20260505020701 15 1 0.0 0.0 0.00 0.00 0.00 59 1010.9
20260505020151 15 141 0.0 0.0 0.00 0.00 0.00 58 1010.9
20260505015649 15 121 0.0 0.0 0.00 0.00 0.00 59 1010.7
20260505015145 15 85 0.0 0.0 0.00 0.00 0.00 59 1010.8
20260505014642 14 185 0.0 0.0 0.00 0.00 0.00 63 1010.6
20260505014139 13 325 0.0 0.0 0.00 0.00 0.00 64 1010.4
20260505013637 13 325 0.0 0.0 0.00 0.00 0.00 64 1010.3
20260505013134 13 339 0.0 0.0 0.00 0.00 0.00 63 1010.5
20260505012632 13 334 0.0 0.0 0.00 0.00 0.00 62 1010.5
20260505012128 13 340 0.0 0.0 0.00 0.00 0.00 63 1010.5
20260505011624 14 343 0.0 0.0 0.00 0.00 0.00 63 1010.6
20260505011122 14 334 0.0 0.0 0.00 0.00 0.00 61 1010.3
20260505010616 14 334 0.0 0.0 0.00 0.00 0.00 61 1010.1
20260505010114 15 333 0.0 0.0 0.00 0.00 0.00 59 1010.0
20260505005609 15 351 0.0 0.0 0.00 0.00 0.00 59 1010.1
20260505005101 15 351 0.0 0.0 0.00 0.00 0.00 58 1009.9
20260505004558 15 352 0.0 0.0 0.00 0.00 0.00 57 1010.1
20260505004055 15 326 0.0 0.0 0.00 0.00 0.00 56 1009.8
20260505003552 15 319 0.0 0.0 0.00 0.00 0.00 56 1010.0
20260505003050 16 340 0.0 0.0 0.00 0.00 0.00 54 1009.8
20260505002549 16 342 0.0 0.0 0.00 0.00 0.00 54 1009.8
20260505002043 16 331 0.0 0.0 0.00 0.00 0.00 54 1009.8
20260505001540 16 334 0.0 0.0 0.00 0.00 0.00 54 1010.0
20260505001037 16 344 0.0 0.0 0.00 0.00 0.00 53 1009.7
20260505000535 17 352 0.0 0.0 0.00 0.00 0.00 53 1009.9
20260505000032 17 343 0.0 0.0 0.00 0.00 0.00 51 1009.6
20260504235529 17 330 0.0 0.0 0.00 0.00 0.00 51 1009.8
20260504235025 17 348 0.0 0.0 0.00 0.00 0.00 51 1009.6
20260504234523 17 353 0.0 0.0 0.00 0.00 0.00 48 1009.6
20260504234020 18 297 0.0 1.6 0.00 0.00 0.00 49 1009.3
20260504233515 18 348 0.0 0.0 0.00 0.00 0.00 49 1009.4
20260504233012 18 311 0.0 0.0 0.00 0.00 0.00 47 1009.4
20260504232509 18 5 0.0 0.0 0.00 0.00 0.00 47 1009.4
20260504232007 19 331 0.0 0.0 0.00 0.00 0.00 47 1009.4
20260504231503 19 308 0.0 1.6 0.00 0.00 0.00 44 1009.4
20260504230959 20 342 0.0 1.6 0.00 0.00 0.00 45 1009.1
20260504230455 20 118 0.0 0.0 0.00 0.00 0.00 44 1009.3
20260504225955 20 339 1.6 4.8 0.00 0.00 0.00 43 1009.1
20260504225451 20 62 1.6 3.2 0.00 0.00 0.00 44 1009.3
20260504224948 20 181 4.8 9.7 0.00 0.00 0.00 45 1009.2
20260504224444 20 94 1.6 3.2 0.00 0.00 0.00 44 1009.1
20260504223942 20 305 0.0 1.6 0.00 0.00 0.00 44 1008.9
20260504223438 20 321 0.0 1.6 0.00 0.00 0.00 43 1009.1
20260504222933 20 223 0.0 4.8 0.00 0.00 0.00 43 1009.3
20260504222431 20 0 0.0 3.2 0.00 0.00 0.00 42 1009.3
20260504221929 20 285 0.0 0.0 0.00 0.00 0.00 43 1009.0
20260504221425 20 349 1.6 3.2 0.00 0.00 0.00 42 1009.3
20260504220923 20 192 4.8 4.8 0.00 0.00 0.00 41 1009.2
20260504220419 21 240 3.2 4.8 0.00 0.00 0.00 42 1009.2
20260504215916 21 196 4.8 8.0 0.00 0.00 0.00 41 1009.2
20260504215413 21 44 0.0 3.2 0.00 0.00 0.00 41 1009.4
20260504214909 21 318 0.0 3.2 0.00 0.00 0.00 41 1009.3
20260504214406 21 209 1.6 1.6 0.00 0.00 0.00 41 1009.4
20260504213903 21 339 0.0 1.6 0.00 0.00 0.00 43 1009.4
20260504213358 21 263 1.6 3.2 0.00 0.00 0.00 42 1009.3
20260504212855 21 311 3.2 11.3 0.00 0.00 0.00 41 1009.4
20260504212346 21 1 1.6 3.2 0.00 0.00 0.00 39 1009.3
20260504211844 21 31 0.0 3.2 0.00 0.00 0.00 38 1009.4
20260504211340 21 346 1.6 3.2 0.00 0.00 0.00 40 1009.5
20260504210838 21 81 0.0 4.8 0.00 0.00 0.00 40 1009.3
20260504210334 21 206 4.8 14.5 0.00 0.00 0.00 39 1009.6
20260504205832 21 249 0.0 4.8 0.00 0.00 0.00 40 1009.7
20260504205329 21 309 3.2 8.0 0.00 0.00 0.00 39 1009.8
20260504204827 21 109 3.2 9.7 0.00 0.00 0.00 38 1009.6
20260504204326 21 133 1.6 4.8 0.00 0.00 0.00 38 1009.6
20260504203825 21 12 6.4 9.7 0.00 0.00 0.00 39 1009.5
20260504203321 21 232 1.6 4.8 0.00 0.00 0.00 38 1009.3
20260504202817 21 17 1.6 8.0 0.00 0.00 0.00 38 1009.2
20260504202314 22 258 3.2 4.8 0.00 0.00 0.00 38 1009.5
20260504201811 21 341 3.2 4.8 0.00 0.00 0.00 42 1009.3
20260504201308 21 209 3.2 8.0 0.00 0.00 0.00 40 1009.4
20260504200806 22 358 3.2 11.3 0.00 0.00 0.00 38 1009.4
20260504200302 21 349 1.6 8.0 0.00 0.00 0.00 38 1009.6
20260504195758 21 326 1.6 3.2 0.00 0.00 0.00 39 1009.7
20260504195254 21 352 4.8 9.7 0.00 0.00 0.00 38 1009.6
20260504194751 22 81 3.2 11.3 0.00 0.00 0.00 38 1009.6
20260504194247 22 152 6.4 8.0 0.00 0.00 0.00 36 1009.9
20260504193743 21 242 3.2 14.5 0.00 0.00 0.00 36 1009.9
20260504193241 22 206 1.6 8.0 0.00 0.00 0.00 37 1009.7
20260504192739 22 117 8.0 11.3 0.00 0.00 0.00 36 1009.8
20260504192237 22 264 4.8 9.7 0.00 0.00 0.00 38 1009.7
20260504191736 22 331 3.2 4.8 0.00 0.00 0.00 38 1009.9
20260504191232 22 7 3.2 9.7 0.00 0.00 0.00 37 1010.0
20260504190727 22 302 1.6 4.8 0.00 0.00 0.00 36 1010.0
20260504190224 22 331 1.6 3.2 0.00 0.00 0.00 39 1010.0
20260504185721 22 216 0.0 3.2 0.00 0.00 0.00 38 1010.3
20260504185218 22 113 4.8 9.7 0.00 0.00 0.00 36 1010.3
20260504184714 22 290 3.2 4.8 0.00 0.00 0.00 36 1010.4
20260504184210 22 92 1.6 4.8 0.00 0.00 0.00 40 1010.7
20260504183706 22 97 4.8 9.7 0.00 0.00 0.00 38 1010.6
20260504183203 22 206 1.6 3.2 0.00 0.00 0.00 36 1010.5
20260504182701 22 327 6.4 8.0 0.00 0.00 0.00 36 1010.4
20260504182158 22 226 1.6 9.7 0.00 0.00 0.00 39 1010.6
20260504181655 21 66 1.6 8.0 0.00 0.00 0.00 39 1010.8
20260504181153 22 204 3.2 11.3 0.00 0.00 0.00 36 1010.9